Terug naar catalogus

STARLINK-2422

ActiefCommunicatieVLEO
NORAD 47832·PAYLOAD·🇺🇸 United States

Gelanceerd Mar 11, 2021 vanaf Cape Canaveral Space Force Station

Loading…

Volgende Passages (komende 24 uur)

TLE

VersSource: CelesTrak SupGP

Epoch: Sep 14, 2026, 19:51 UTC

1 47832C 21018AX  26257.82756944 -.00006477  00000+0 -20837-3 0  2578
2 47832  53.1578  85.5079 0001231  84.7899 334.4061 15.31694258    17

Volg STARLINK-2422 in realtime met AllMySat

Download on the App Store